Regional Weather Roundup
Issued by NWS New Orleans/Baton Rouge, LA

Home | Current Version | Previous Version | Text Only | Print | Product List | Glossary On
Versions: 1 2 3 4 5 6 7 8 9 10 11 12 13 14 15 16 17 18 19 20 21 22 23 24 25 26 27 28 29 30 31 32 33 34 35 36 37 38 39 40 41 42 43 44 45 46 47 48 49 50
008
ASUS44 KLIX 231601
RWRLIX
NEW ORLEANS REGIONAL WEATHER ROUNDUP
NATIONAL WEATHER SERVICE NEW ORLEANS LA
1100 AM CDT WED APR 23 2014

NOTE: "FAIR" INDICATES FEW OR NO CLOUDS BELOW 12,000 FEET WITH NO
      SIGNIFICANT WEATHER AND/OR OBSTRUCTIONS TO VISIBILITY.
      SKY/WX - SKY CONDITION AND SIGNIFICANT WEATHER.
      TMP - AIR TEMPERATURE.     DP    - DEWPOINT TEMPERATURE.
      RH  - RELATIVE HUMIDITY.   PRES  - PRESSURE.
      HI  - HEAT INDEX.          WCI   - WIND CHILL INDEX.

*  THESE STATIONS ARE NOT NWS OR FAA STATIONS AND ARE NOT UNDER
   NWS QUALITY CONTROL.

LAZ038-040-048-061>063-065>067-069-231700-
SOUTHEAST LOUISIANA

CITY           SKY/WX    TMP DP  RH WIND       PRES   REMARKS
N.O. AUDUBON     N/A     79  64  60 MISG        N/A
N.O. INTL ARPT MOSUNNY   77  63  61 VRB3      30.00S
N.O. LAKEFRONT SUNNY     71  63  75 NW5       30.01R
N.O. DOWNTOWN*   N/A     77  61  57 W3        30.00S
SLIDELL        SUNNY     79  61  53 N5        29.98S
BATON ROUGE    SUNNY     79  58  48 VRB5      30.00S
BOOTHVILLE     SUNNY     74  64  71 CALM      30.01R
BELLE CHASSE   MOSUNNY   77  61  57 CALM      29.99S
BOGALUSA*        N/A     78  59  51 SE5       30.01S
GALLIANO*      NOT AVBL
NEW ROADS*     NOT AVBL
GONZALES*      NOT AVBL
HAMMOND*       NOT AVBL
HOUMA*         SUNNY     79  57  47 NE6       30.00S
PORT FOURCHON* MOSUNNY   77  63  61 E6        30.02S

$$

MSZ070-080>082-231700-
SOUTHERN MISSISSIPPI

CITY           SKY/WX    TMP DP  RH WIND       PRES   REMARKS
MCCOMB         SUNNY     76  54  46 NW6       30.00S
GULFPORT       SUNNY     80  62  54 E6        29.98R
BILOXI         NOT AVBL
PASCAGOULA     MOSUNNY   79  63  57 MISG      29.98S
STENNIS ARPT*  MOSUNNY   79  61  53 VRB3      29.99R

$$

COASTAL OBSERVATIONS
LAKE AND NEARSHORE STATIONS

STATION/POSITION TIME  TEMP    WIND        PRES    WAVE
                       AIR SEA DIR/SP/G            HT/PER
                 (UTC) (F)     (DEG/KT/KT) (MB)    (FT/S)
PASCAGOULA       1500   72     180/  5/  6 1014.5
WAVELAND YACHT   1500   71 71   CALM  /  2 1014.7
GRAND ISLE       1500   72 71  350/  3/  4 1016.6
SOUTHWEST PASS   1500   74 60  320/  5/  5 1016.4
NEW CANAL        1500   69 69  360/  2/  3 1016.4
SHELL BEACH      1500   67 67  350/  5/  5 1015.6

OFFSHORE STATIONS

STATION/POSITION TIME  TEMP    WIND        PRES    WAVE
                       AIR SEA DIR/SP/G            HT/PER
                 (UTC) (F)     (DEG/KT/KT) (MB)    (FT/S)
64 S DAUPHIN ISL 1513   68 69   20/  8/  8 1015.6

$$




USA.gov is the U.S. government's official web portal to all federal, state and local government web resources and services.